Regional Weather Roundup
Issued by NWS

Home | Current Version | Previous Version | Text Only | Print | Product List | Glossary On
Versions: 1 2 3 4 5 6 7 8 9 10 11 12 13 14 15 16 17 18 19 20 21 22 23 24 25 26 27 28 29 30 31 32 33 34 35 36 37 38 39 40 41 42 43 44 45 46 47 48 49 50
000
ASUS45 KPSR 121110
RWRAZ

ARIZONA HOURLY REGIONAL WEATHER ROUNDUP
NATIONAL WEATHER SERVICE PHOENIX AZ
400 AM MST TUE DEC 12 2017

NOTE: FAIR INDICATES FEW OR NO CLOUDS BELOW 12,000 FEET WITH NO
SIGNIFICANT WEATHER AND/OR OBSTRUCTIONS TO VISIBILITY.

AZZ001>003-036-121200-
NORTHWEST ARIZONA

CITY           SKY/WX    TMP DP  RH WIND       PRES   REMARKS
BULLHEAD CITY  CLEAR     61   3  10 N23G35    30.26S
KINGMAN        PTCLDY    32  -2  23 E5        30.37S WCI  27
$$

AZZ004>008-015-016-018-121200-
NORTH CENTRAL ARIZONA

CITY           SKY/WX    TMP DP  RH WIND       PRES   REMARKS
GRAND CANYON   PTCLDY    14 -14  27 NE3       30.49F
WILLIAMS       PTCLDY    18  -4  38 S9        30.43S WCI   6
PRESCOTT       MOCLDY    27  -2  28 S7        30.40S WCI  19
FLAGSTAFF      PTCLDY    18  -5  36 CALM      30.47R
PAYSON         CLEAR     48  -9   9 E5        30.38R
PAGE           MOCLDY    29  10  45 CALM      30.50S
$$

AZZ009>014-017-121200-
NORTHEAST ARIZONA

CITY           SKY/WX    TMP DP  RH WIND       PRES   REMARKS
WINSLOW        CLOUDY    16  -6  37 S6        30.51S WCI   7
SAINT JOHNS    CLOUDY    12  -6  44 S3        30.47S
WINDOW ROCK    PTCLDY     8 -11  41 CALM      30.49F
SHOW LOW       MOCLDY    23  -4  30 CALM      30.48R
$$

AZZ540-542>544-546-548-121200-
GREATER PHOENIX AREA

CITY           SKY/WX    TMP DP  RH WIND       PRES   REMARKS
PHOENIX        MOCLDY    51  16  24 E6        30.23R
BUCKEYE        MOCLDY    46   5  18 E6        30.24S
LUKE AFB       PTCLDY    44  16  32 N6        30.23R
DEER VALLEY    PTCLDY    51  -3  10 E6        30.23S
SCOTTSDALE     PTCLDY    47  17  30 N3        30.25R
$$

AZZ539-553-121200-
SOUTHWEST MARICOPA COUNTY AND PINAL COUNTY

CITY           SKY/WX    TMP DP  RH WIND       PRES   REMARKS
CASA GRANDE    NOT AVBL
$$

AZZ503-504-507>509-121200-
SOUTHEAST ARIZONA

CITY           SKY/WX    TMP DP  RH WIND       PRES   REMARKS
TUCSON         PTCLDY    58  21  24 E7        30.26F
DAVIS-MONTHAN  MOCLDY    55  21  26 E12       30.24F
NOGALES        CLEAR     39  18  42 E6        30.28S WCI  35
SIERRA VISTA   CLEAR     41  19  40 S6        30.33S
DOUGLAS        PTCLDY    33  16  49 CALM      30.32F
SAFFORD        MOCLDY    39   9  29 CALM      30.34R
$$

AZZ532-121200-
SOUTHWEST ARIZONA

CITY           SKY/WX    TMP DP  RH WIND       PRES   REMARKS
YUMA           CLEAR     51   8  17 NE3       30.20S
$$

CAZ041-043-047-048-061-525>527-560>570-121200-
SOUTHERN CALIFORNIA

CITY           SKY/WX    TMP DP  RH WIND       PRES   REMARKS
DOWNTOWN L.A.  CLEAR     58   7  13 CALM      30.18S
L.A. AIRPORT   PTCLDY    56  13  18 E3        30.19S
SAN DIEGO      CLEAR     54  18  24 CALM      30.20S
BURBANK        CLEAR     48  14  25 N3        30.20S
ONTARIO        PTCLDY    51  19  28 CALM      30.21S
RIVERSIDE      CLEAR     50  11  20 NE6       30.22S
PALM SPRINGS   CLEAR     55   8  15 NW6       30.24S
EL CENTRO NAS  CLEAR     43   5  20 W6        30.23S
IMPERIAL       CLEAR     47   4  17 W7        30.21R
BLYTHE         CLEAR     54  -4   9 SW5       30.25S
NEEDLES        CLEAR     52   0  12 NW8       30.28S
$$

NVZ020-UTZ003-121200-
SOUTHERN NEVADA-UTAH

CITY           SKY/WX    TMP DP  RH WIND       PRES   REMARKS
LAS VEGAS      PTCLDY    41  -2  16 VRB5      30.37S
SALT LAKE CITY FOG       24  22  91 SW3       30.61F VSB 1/4
$$

NMZ009-TXZ055-121200-
NEW MEXICO-WEST TEXAS

CITY           SKY/WX    TMP DP  RH WIND       PRES   REMARKS
ALBUQUERQUE    CLOUDY    33   2  26 NW6       30.49S WCI  28
EL PASO        PTCLDY    34  16  47 N9        30.42R WCI  27
$$


........................KEY........................
SKY/WX - SKY CONDITION/WEATHER
TMP    - TEMPERATURE IN FAHRENHEIT
DP     - DEW POINT IN FAHRENHEIT
RH     - RELATIVE HUMIDITY IN PERCENT
WIND   - DIRECTION AND SPEED IN MILES PER HOUR (MPH)
VRB    - VARIABLE WIND DIRECTION
PRES   - MEAN SEA LEVEL PRESSURE IN INCHES OF MERCURY
         F - FALLING PRESSURE   R - RISING PRESSURE
         S - STEADY PRESSURE
VSB    - VISIBILITY IN MILES
HX     - HEAT INDEX IN FAHRENHEIT
WCI    - WIND CHILL INDEX IN FAHRENHEIT
TC     - TEMPERATURE IN CELSIUS WHICH IS ALSO KNOWN AS
         TEMPERATURE IN CENTIGRADE
AFB    - AIR FORCE BASE
         LUKE AFB IS LUKE AIR FORCE BASE
         DAVIS-MONTHAN IS DAVIS-MONTHAN AIR FORCE BASE
NAS    - NAVAL AIR STATION
         EL CENTRO NAS IS EL CENTRO NAVAL AIR STATION
N/A    - NOT AVAILABLE




USA.gov is the U.S. government's official web portal to all federal, state and local government web resources and services.